• In United Kingdom
  • List of Countries
  • For 7 days
  • Water Temperature
  • Satellite Maps
  • Weather Map
  • Weather Widgets
  • user-avatar
    Login

    Hourly Weather Kos

    Today, 21 September, Thursday

    Time Temperature Precipitation Wind Pressure Humidity
    00:00 +23°C° 0 mm 5 mps 760 mmHg 78%
    01:00 +23°C° 0 mm 5 mps 760 mmHg 82%
    02:00 +23°C° 0 mm 5 mps 760 mmHg 87%
    03:00 +23°C° 0 mm 6 mps 760 mmHg 89%
    04:00 +22°C° 0 mm 6 mps 760 mmHg 92%
    05:00 +22°C° 0 mm 6 mps 760 mmHg 95%
    06:00 +23°C° 0 mm 6 mps 761 mmHg 87%
    07:00 +24°C° 0 mm 6 mps 761 mmHg 79%
    08:00 +27°C° 0 mm 6 mps 761 mmHg 71%
    09:00 +28°C° 0 mm 6 mps 761 mmHg 62%
    10:00 +29°C° 0 mm 6 mps 761 mmHg 54%
    11:00 +32°C° 0 mm 6 mps 761 mmHg 45%
    12:00 +32°C° 0 mm 6 mps 761 mmHg 44%
    13:00 +32°C° 0 mm 6 mps 761 mmHg 43%
    14:00 +32°C° 0 mm 6 mps 761 mmHg 42%
    15:00 +30°C° 0 mm 6 mps 761 mmHg 43%
    16:00 +28°C° 0 mm 6 mps 761 mmHg 44%
    17:00 +27°C° 0 mm 6 mps 761 mmHg 45%
    18:00 +25°C° 0 mm 5 mps 761 mmHg 55%
    19:00 +22°C° 0 mm 5 mps 761 mmHg 64%
    20:00 +20°C° 0 mm 4 mps 761 mmHg 74%
    21:00 +20°C° 0 mm 4 mps 762 mmHg 77%
    22:00 +20°C° 0 mm 4 mps 762 mmHg 80%
    23:00 +19°C° 0 mm 4 mps 762 mmHg 83%

    Tomorrow, 22 September, Friday

    Time Temperature Precipitation Wind Pressure Humidity
    00:00 +19°C° 0 mm 4 mps 762 mmHg 84%
    01:00 +19°C° 0 mm 3 mps 762 mmHg 85%
    02:00 +18°C° 0 mm 3 mps 761 mmHg 86%
    03:00 +18°C° 0 mm 3 mps 761 mmHg 86%
    04:00 +18°C° 0 mm 3 mps 761 mmHg 87%
    05:00 +18°C° 0 mm 3 mps 761 mmHg 87%
    06:00 +19°C° 0 mm 3 mps 762 mmHg 78%
    07:00 +21°C° 0 mm 3 mps 762 mmHg 69%
    08:00 +24°C° 0 mm 3 mps 762 mmHg 60%
    09:00 +26°C° 0 mm 4 mps 762 mmHg 50%
    10:00 +27°C° 0 mm 4 mps 763 mmHg 41%
    11:00 +29°C° 0 mm 4 mps 763 mmHg 32%
    12:00 +30°C° 0 mm 5 mps 763 mmHg 31%
    13:00 +30°C° 0 mm 6 mps 763 mmHg 31%
    14:00 +30°C° 0 mm 7 mps 762 mmHg 30%
    15:00 +29°C° 0 mm 8 mps 762 mmHg 34%
    16:00 +28°C° 0 mm 9 mps 762 mmHg 39%
    17:00 +27°C° 0 mm 9 mps 762 mmHg 43%
    18:00 +24°C° 0 mm 9 mps 763 mmHg 52%
    19:00 +22°C° 0 mm 9 mps 763 mmHg 61%
    20:00 +19°C° 0 mm 9 mps 764 mmHg 69%
    21:00 +18°C° 0 mm 9 mps 764 mmHg 73%
    22:00 +18°C° 0 mm 9 mps 764 mmHg 77%
    23:00 +17°C° 0 mm 9 mps 764 mmHg 81%

    Day after tomorrow, 23 September, Saturday

    Time Temperature Precipitation Wind Pressure Humidity
    00:00 +17°C° 0 mm 9 mps 764 mmHg 82%
    01:00 +16°C° 0 mm 9 mps 764 mmHg 83%
    02:00 +16°C° 0 mm 9 mps 764 mmHg 83%
    03:00 +15°C° 0 mm 9 mps 764 mmHg 84%
    04:00 +15°C° 0 mm 9 mps 764 mmHg 85%
    05:00 +15°C° 0 mm 9 mps 764 mmHg 85%
    06:00 +16°C° 0 mm 8 mps 764 mmHg 75%
    07:00 +18°C° 0 mm 8 mps 764 mmHg 64%
    08:00 +21°C° 0 mm 8 mps 765 mmHg 54%
    09:00 +23°C° 0 mm 8 mps 765 mmHg 45%
    10:00 +26°C° 0 mm 8 mps 765 mmHg 37%
    11:00 +28°C° 0 mm 8 mps 765 mmHg 28%
    12:00 +29°C° 0 mm 8 mps 764 mmHg 27%
    13:00 +31°C° 0 mm 8 mps 764 mmHg 25%
    14:00 +32°C° 0 mm 8 mps 764 mmHg 23%
    15:00 +31°C° 0 mm 8 mps 764 mmHg 25%
    16:00 +29°C° 0 mm 9 mps 764 mmHg 27%
    17:00 +28°C° 0 mm 9 mps 763 mmHg 29%
    18:00 +26°C° 0 mm 9 mps 764 mmHg 37%
    19:00 +23°C° 0 mm 9 mps 764 mmHg 45%
    20:00 +19°C° 0 mm 9 mps 764 mmHg 53%
    21:00 +19°C° 0 mm 9 mps 764 mmHg 54%
    22:00 +18°C° 0 mm 8 mps 764 mmHg 56%
    23:00 +17°C° 0 mm 8 mps 764 mmHg 58%

    24 September, Sunday

    Time Temperature Precipitation Wind Pressure Humidity
    00:00 +17°C° 0 mm 8 mps 764 mmHg 57%
    01:00 +16°C° 0 mm 8 mps 763 mmHg 57%
    02:00 +16°C° 0 mm 7 mps 763 mmHg 57%
    03:00 +15°C° 0 mm 7 mps 763 mmHg 56%
    04:00 +15°C° 0 mm 7 mps 763 mmHg 56%
    05:00 +15°C° 0 mm 7 mps 763 mmHg 55%
    06:00 +16°C° 0 mm 7 mps 763 mmHg 50%
    07:00 +19°C° 0 mm 6 mps 763 mmHg 45%
    08:00 +21°C° 0 mm 6 mps 763 mmHg 40%
    09:00 +24°C° 0 mm 6 mps 763 mmHg 35%
    10:00 +27°C° 0 mm 5 mps 763 mmHg 30%
    11:00 +30°C° 0 mm 5 mps 763 mmHg 25%
    12:00 +32°C° 0 mm 5 mps 763 mmHg 24%
    13:00 +32°C° 0 mm 6 mps 762 mmHg 22%
    14:00 +33°C° 0 mm 6 mps 762 mmHg 21%
    15:00 +32°C° 0 mm 6 mps 762 mmHg 22%
    16:00 +32°C° 0 mm 6 mps 762 mmHg 24%
    17:00 +30°C° 0 mm 7 mps 762 mmHg 26%
    18:00 +27°C° 0 mm 6 mps 762 mmHg 35%
    19:00 +23°C° 0 mm 6 mps 762 mmHg 43%
    20:00 +21°C° 0 mm 6 mps 762 mmHg 52%
    21:00 +20°C° 0 mm 6 mps 762 mmHg 51%
    22:00 +20°C° 0 mm 6 mps 762 mmHg 51%
    23:00 +20°C° 0 mm 5 mps 762 mmHg 50%

    25 September, Monday

    Time Temperature Precipitation Wind Pressure Humidity
    00:00 +19°C° 0 mm 5 mps 762 mmHg 49%
    01:00 +19°C° 0 mm 5 mps 761 mmHg 48%
    02:00 +17°C° 0 mm 5 mps 761 mmHg 47%
    03:00 +17°C° 0 mm 5 mps 761 mmHg 48%
    04:00 +17°C° 0 mm 5 mps 761 mmHg 49%
    05:00 +16°C° 0 mm 5 mps 761 mmHg 50%
    06:00 +19°C° 0 mm 5 mps 761 mmHg 46%
    07:00 +21°C° 0 mm 5 mps 761 mmHg 42%
    08:00 +22°C° 0 mm 5 mps 761 mmHg 38%
    09:00 +26°C° 0 mm 5 mps 761 mmHg 33%
    10:00 +28°C° 0 mm 5 mps 761 mmHg 29%
    11:00 +32°C° 0 mm 5 mps 761 mmHg 24%
    12:00 +32°C° 0 mm 5 mps 761 mmHg 25%
    13:00 +32°C° 0 mm 5 mps 760 mmHg 25%
    14:00 +33°C° 0 mm 5 mps 760 mmHg 26%
    15:00 +30°C° 0 mm 5 mps 760 mmHg 31%
    16:00 +29°C° 0 mm 5 mps 760 mmHg 36%
    17:00 +28°C° 0 mm 6 mps 760 mmHg 42%
    18:00 +26°C° 0 mm 6 mps 760 mmHg 53%
    19:00 +23°C° 0 mm 6 mps 761 mmHg 64%
    20:00 +20°C° 0 mm 6 mps 761 mmHg 75%
    21:00 +20°C° 0 mm 6 mps 761 mmHg 79%
    22:00 +20°C° 0 mm 6 mps 761 mmHg 82%
    23:00 +19°C° 0 mm 6 mps 761 mmHg 86%

    26 September, Tuesday

    Time Temperature Precipitation Wind Pressure Humidity
    00:00 +19°C° 0 mm 6 mps 761 mmHg 86%
    01:00 +19°C° 0 mm 6 mps 760 mmHg 87%
    02:00 +19°C° 0 mm 6 mps 760 mmHg 88%
    03:00 +17°C° 0 mm 6 mps 760 mmHg 88%
    04:00 +17°C° 0 mm 6 mps 760 mmHg 88%
    05:00 +17°C° 0 mm 6 mps 761 mmHg 89%
    06:00 +20°C° 0 mm 6 mps 761 mmHg 81%
    07:00 +21°C° 0 mm 6 mps 761 mmHg 74%
    08:00 +23°C° 0 mm 5 mps 761 mmHg 67%
    09:00 +26°C° 0 mm 5 mps 761 mmHg 60%
    10:00 +27°C° 0 mm 5 mps 761 mmHg 54%
    11:00 +29°C° 0 mm 6 mps 762 mmHg 48%
    12:00 +29°C° 0.2 mm 6 mps 762 mmHg 47%
    13:00 +30°C° 0.2 mm 6 mps 762 mmHg 46%
    14:00 +30°C° 0.2 mm 6 mps 762 mmHg 45%
    15:00 +28°C° 0 mm 6 mps 762 mmHg 52%
    16:00 +27°C° 0 mm 6 mps 762 mmHg 58%
    17:00 +26°C° 0 mm 5 mps 762 mmHg 65%
    18:00 +23°C° 0 mm 5 mps 762 mmHg 74%
    19:00 +21°C° 0 mm 5 mps 763 mmHg 83%
    20:00 +20°C° 0 mm 4 mps 763 mmHg 92%
    21:00 +20°C° 0 mm 4 mps 763 mmHg 93%
    22:00 +19°C° 0 mm 4 mps 763 mmHg 94%
    23:00 +19°C° 0 mm 4 mps 763 mmHg 94%
    Show more